KC5NAM Weather Reports


Display with metric or nautical units.
time (UTC)temp
F
wind
direction
speed
MPH
gust
MPH
rain 1hr
in
rain 24hr
in
rain mn
in
humidity
%
barometer
mb
20260905161035 94 148 2.0 10.0 0.00 0.00 0.00 61 1019.1
20260905160534 94 78 4.0 10.0 0.00 0.00 0.00 61 1019.1
20260905160051 94 157 5.0 10.0 0.00 0.00 0.00 63 1019.2
20260905155534 93 34 4.0 12.0 0.00 0.00 0.00 63 1019.1
20260905155034 92 196 4.0 12.0 0.00 0.00 0.00 65 1019.1
20260905154602 92 79 3.0 9.0 0.00 0.00 0.00 68 1019.1
20260905154035 90 93 2.0 9.0 0.00 0.00 0.00 69 1019.1
20260905153537 89 360 4.0 9.0 0.00 0.00 0.00 72 1019.1
20260905153055 89 141 1.0 8.0 0.00 0.00 0.00 73 1019.1
20260905152535 88 152 3.0 8.0 0.00 0.00 0.00 74 1019.1
20260905152034 87 176 2.0 8.0 0.00 0.00 0.00 76 1019.1
20260905151601 87 156 2.0 8.0 0.00 0.00 0.00 77 1018.9
20260905151034 86 186 3.0 8.0 0.00 0.00 0.00 78 1018.9
20260905150535 86 207 4.0 9.0 0.00 0.00 0.00 78 1019.0
20260905150051 86 151 4.0 9.0 0.00 0.00 0.00 77 1019.0
20260905145535 86 192 3.0 6.0 0.00 0.00 0.00 79 1019.1
20260905145034 86 198 3.0 8.0 0.00 0.00 0.00 79 1019.0
20260905144556 86 132 1.0 8.0 0.00 0.00 0.00 79 1018.9
20260905144034 86 163 3.0 8.0 0.00 0.00 0.00 79 1018.9
20260905143535 86 159 2.0 7.0 0.00 0.00 0.00 80 1018.9
20260905143054 86 132 3.0 7.0 0.00 0.00 0.00 80 1018.9
20260905142535 85 150 2.0 8.0 0.00 0.00 0.00 81 1018.8
20260905142034 85 0 2.0 8.0 0.00 0.00 0.00 82 1018.7
20260905141552 84 76 2.0 6.0 0.00 0.00 0.00 83 1018.7
20260905141034 84 114 2.0 6.0 0.00 0.00 0.00 84 1018.6
20260905140534 84 0 1.0 9.0 0.00 0.00 0.00 84 1018.5
20260905140050 83 0 0.0 9.0 0.00 0.00 0.00 85 1018.5
20260905135534 83 159 0.0 4.0 0.00 0.00 0.00 85 1018.4
20260905135035 83 0 1.0 4.0 0.00 0.00 0.00 86 1018.3
20260905134544 82 0 0.0 3.0 0.00 0.00 0.00 88 1018.2
20260905134037 81 163 0.0 2.0 0.00 0.00 0.00 90 1018.1
20260905133534 81 0 0.0 2.0 0.00 0.00 0.00 90 1018.1
20260905133054 80 0 0.0 1.0 0.00 0.00 0.00 91 1018.1
20260905132534 80 0 0.0 1.0 0.00 0.00 0.00 91 1018.2
20260905132035 80 0 0.0 0.0 0.00 0.00 0.00 92 1018.1
20260905131558 80 0 0.0 0.0 0.00 0.00 0.00 92 1018.1
20260905131034 79 0 0.0 0.0 0.00 0.00 0.00 92 1018.1
20260905130535 79 0 0.0 0.0 0.00 0.00 0.00 92 1018.1
20260905130052 79 0 0.0 1.0 0.00 0.00 0.00 92 1018.0
20260905125534 79 0 0.0 1.0 0.00 0.00 0.00 92 1018.1
20260905125035 79 0 0.0 2.0 0.00 0.00 0.00 93 1018.0
20260905124555 79 0 0.0 3.0 0.00 0.00 0.00 93 1017.8
20260905124032 79 0 0.0 3.0 0.00 0.00 0.00 93 1017.8
20260905123534 79 0 0.0 3.0 0.00 0.00 0.00 93 1017.8
20260905123105 79 96 0.0 2.0 0.00 0.00 0.00 93 1017.7
20260905122535 79 0 0.0 0.0 0.00 0.00 0.00 93 1017.6
20260905122038 79 0 0.0 0.0 0.00 0.00 0.00 93 1017.6
20260905121554 79 0 0.0 0.0 0.00 0.00 0.00 92 1017.6
20260905121035 79 0 0.0 0.0 0.00 0.00 0.00 92 1017.6
20260905120535 79 0 0.0 0.0 0.00 0.00 0.00 92 1017.5
20260905120053 79 0 0.0 0.0 0.00 0.00 0.00 92 1017.6
20260905115535 79 0 0.0 0.0 0.00 0.00 0.00 92 1017.6
20260905115034 79 0 0.0 0.0 0.00 0.00 0.00 91 1017.6
20260905114549 79 0 0.0 0.0 0.00 0.00 0.00 91 1017.7
20260905114034 79 0 0.0 0.0 0.00 0.00 0.00 91 1017.7
20260905113535 79 0 0.0 0.0 0.00 0.00 0.00 91 1017.7
20260905113104 79 0 0.0 0.0 0.00 0.00 0.00 91 1017.6
20260905112535 79 0 0.0 0.0 0.00 0.00 0.00 91 1017.7
20260905112035 79 0 0.0 0.0 0.00 0.00 0.00 91 1017.6
20260905111558 79 0 0.0 0.0 0.00 0.00 0.00 91 1017.6
20260905111035 79 0 0.0 0.0 0.00 0.00 0.00 91 1017.4
20260905110540 79 0 0.0 0.0 0.00 0.00 0.00 91 1017.4
20260905110052 79 0 0.0 0.0 0.00 0.00 0.00 91 1017.4
20260905105535 79 0 0.0 0.0 0.00 0.00 0.00 91 1017.6
20260905105036 80 0 0.0 0.0 0.00 0.00 0.00 91 1017.3
20260905104551 80 0 0.0 0.0 0.00 0.00 0.00 91 1017.3
20260905104035 80 0 0.0 0.0 0.00 0.00 0.00 91 1017.3
20260905103534 80 0 0.0 0.0 0.00 0.00 0.00 91 1017.4
20260905103053 80 0 0.0 0.0 0.00 0.00 0.00 91 1017.3
20260905102537 80 0 0.0 0.0 0.00 0.00 0.00 91 1017.4
20260905102035 80 0 0.0 0.0 0.00 0.00 0.00 90 1017.3
20260905101555 80 0 0.0 0.0 0.00 0.00 0.00 90 1017.3
20260905101034 80 0 0.0 0.0 0.00 0.00 0.00 90 1017.3
20260905100534 80 0 0.0 1.0 0.00 0.00 0.00 90 1017.3
20260905100100 80 0 0.0 1.0 0.00 0.00 0.00 90 1017.3
20260905095534 80 0 0.0 1.0 0.00 0.00 0.00 90 1017.2
20260905095039 80 0 0.0 1.0 0.00 0.00 0.00 90 1017.3
20260905094548 80 0 0.0 1.0 0.00 0.00 0.00 90 1017.3
20260905094035 80 0 0.0 0.0 0.00 0.00 0.00 90 1017.3
20260905093535 80 0 0.0 0.0 0.00 0.00 0.00 90 1017.4
20260905093058 80 0 0.0 0.0 0.00 0.00 0.00 89 1017.4
20260905092534 80 0 0.0 0.0 0.00 0.00 0.00 89 1017.4
20260905092035 80 0 0.0 0.0 0.00 0.00 0.00 89 1017.3
20260905091555 80 0 0.0 0.0 0.00 0.00 0.00 89 1017.4
20260905091036 80 0 0.0 0.0 0.00 0.00 0.00 89 1017.3
20260905090534 80 0 0.0 0.0 0.00 0.00 0.00 89 1017.4
20260905090053 80 0 0.0 0.0 0.00 0.00 0.00 89 1017.3
20260905085535 80 0 0.0 0.0 0.00 0.00 0.00 89 1017.2
20260905085034 80 0 0.0 0.0 0.00 0.00 0.00 89 1017.2
20260905084604 80 0 0.0 0.0 0.00 0.00 0.00 89 1017.2
20260905084034 80 0 0.0 0.0 0.00 0.00 0.00 89 1017.2
20260905083540 80 0 0.0 0.0 0.00 0.00 0.00 88 1017.2
20260905083049 81 0 0.0 1.0 0.00 0.00 0.00 88 1017.3
20260905082535 81 0 0.0 1.0 0.00 0.00 0.00 88 1017.3
20260905082035 81 0 0.0 0.0 0.00 0.00 0.00 88 1017.4
20260905081552 81 0 0.0 1.0 0.00 0.00 0.00 88 1017.4
20260905081035 81 0 0.0 1.0 0.00 0.00 0.00 88 1017.4
20260905080535 81 0 0.0 3.0 0.00 0.00 0.00 88 1017.4
20260905080133 81 0 1.0 4.0 0.00 0.00 0.00 88 1017.4
20260905075536 81 0 0.0 4.0 0.00 0.00 0.00 88 1017.4
20260905075035 81 72 0.0 2.0 0.00 0.00 0.00 88 1017.6
20260905074551 81 0 0.0 2.0 0.00 0.00 0.00 87 1017.5
20260905074037 81 0 0.0 1.0 0.00 0.00 0.00 87 1017.6
20260905073538 81 0 0.0 0.0 0.00 0.00 0.00 87 1017.7
20260905073045 81 0 0.0 0.0 0.00 0.00 0.00 87 1017.7
20260905072540 81 0 0.0 0.0 0.00 0.00 0.00 87 1017.7
20260905072036 81 0 0.0 1.0 0.00 0.00 0.00 87 1017.7
20260905071555 81 0 0.0 3.0 0.00 0.00 0.00 87 1017.8
20260905071036 81 0 0.0 3.0 0.00 0.00 0.00 87 1017.8
20260905070536 81 0 0.0 2.0 0.00 0.00 0.00 87 1017.8
20260905070057 81 76 0.0 6.0 0.00 0.00 0.00 86 1017.9
20260905065539 81 0 0.0 6.0 0.00 0.00 0.00 86 1017.9
20260905065035 81 0 0.0 2.0 0.00 0.00 0.00 86 1017.8
20260905064600 81 0 0.0 2.0 0.00 0.00 0.00 86 1017.9
20260905064035 81 0 0.0 5.0 0.00 0.00 0.00 85 1018.0
20260905063536 81 155 0.0 5.0 0.00 0.00 0.00 85 1017.9
20260905063048 81 155 1.0 4.0 0.00 0.00 0.00 85 1017.8
20260905062535 81 0 1.0 4.0 0.00 0.00 0.00 85 1017.8
20260905062035 82 153 0.0 4.0 0.00 0.00 0.00 85 1017.8
20260905061542 82 0 0.0 4.0 0.00 0.00 0.00 84 1017.9
20260905061035 82 111 0.0 3.0 0.00 0.00 0.00 84 1017.9
20260905060535 82 0 0.0 3.0 0.00 0.00 0.00 84 1017.9
20260905060100 82 0 0.0 3.0 0.00 0.00 0.00 83 1018.0
20260905055538 82 157 0.0 4.0 0.00 0.00 0.00 83 1018.0
20260905055038 82 140 0.0 4.0 0.00 0.00 0.00 83 1017.9
20260905054557 82 0 0.0 8.0 0.00 0.00 0.00 83 1017.9
20260905054035 82 0 1.0 8.0 0.00 0.00 0.00 82 1017.9
20260905053538 82 0 0.0 5.0 0.00 0.00 0.00 82 1017.9
20260905053106 82 155 0.0 6.0 0.00 0.00 0.00 82 1017.9
20260905052538 82 0 1.0 8.0 0.00 0.00 0.00 82 1017.9
20260905052035 82 153 2.0 8.0 0.00 0.00 0.00 81 1017.9
20260905051600 82 0 1.0 8.0 0.00 0.00 0.00 81 1017.9
20260905051035 83 186 1.0 9.0 0.00 0.00 0.00 80 1018.0
20260905050534 83 153 3.0 9.0 0.00 0.00 0.00 80 1018.0
20260905050058 83 171 3.0 8.0 0.00 0.00 0.00 80 1018.0
20260905045535 83 148 3.0 8.0 0.00 0.00 0.00 79 1018.0
20260905045035 83 157 1.0 6.0 0.00 0.00 0.00 79 1018.1
20260905044601 83 360 1.0 8.0 0.00 0.00 0.00 79 1018.1
20260905044035 83 155 2.0 9.0 0.00 0.00 0.00 78 1018.1
20260905043535 83 155 3.0 9.0 0.00 0.00 0.00 78 1018.1
20260905043106 84 152 3.0 10.0 0.00 0.00 0.00 77 1018.0
20260905042534 84 360 5.0 13.0 0.00 0.00 0.00 77 1018.0
20260905042034 84 119 3.0 13.0 0.00 0.00 0.00 77 1018.0
20260905041548 84 153 6.0 13.0 0.00 0.00 0.00 76 1018.0
20260905041036 84 134 5.0 13.0 0.00 0.00 0.00 76 1018.0
20260905040535 84 161 5.0 13.0 0.00 0.00 0.00 75 1017.9
20260905040053 84 167 5.0 12.0 0.00 0.00 0.00 74 1018.0
20260905035535 85 360 4.0 11.0 0.00 0.00 0.00 73 1017.9
20260905035035 85 157 5.0 10.0 0.00 0.00 0.00 73 1017.8
20260905034558 85 134 4.0 11.0 0.00 0.00 0.00 72 1017.9
20260905034035 85 360 5.0 11.0 0.00 0.00 0.00 71 1017.9
20260905033536 85 94 4.0 10.0 0.00 0.00 0.00 69 1017.8
20260905033056 85 0 2.0 11.0 0.00 0.00 0.00 68 1017.9
20260905032538 85 360 4.0 11.0 0.00 0.00 0.00 68 1017.7
20260905032034 85 0 2.0 10.0 0.00 0.00 0.00 67 1017.7
20260905031553 85 165 3.0 8.0 0.00 0.00 0.00 66 1017.7
20260905031036 85 121 2.0 8.0 0.00 0.00 0.00 66 1017.6
20260905030534 85 130 1.0 7.0 0.00 0.00 0.00 65 1017.4
20260905030056 85 126 2.0 7.0 0.00 0.00 0.00 65 1017.4
20260905025536 85 144 1.0 7.0 0.00 0.00 0.00 64 1017.4
20260905025034 85 0 1.0 5.0 0.00 0.00 0.00 64 1017.4
20260905024556 86 0 0.0 4.0 0.00 0.00 0.00 64 1017.3
20260905024035 86 119 1.0 4.0 0.00 0.00 0.00 64 1017.2
20260905023538 86 0 0.0 6.0 0.00 0.00 0.00 64 1017.2
20260905023056 86 0 1.0 6.0 0.00 0.00 0.00 64 1017.1
20260905022534 86 71 2.0 6.0 0.00 0.00 0.00 64 1017.0
20260905022036 86 153 2.0 7.0 0.00 0.00 0.00 63 1016.9
20260905021554 87 86 1.0 7.0 0.00 0.00 0.00 63 1016.8
20260905021034 87 77 3.0 7.0 0.00 0.00 0.00 63 1016.7
20260905020535 87 360 2.0 8.0 0.00 0.00 0.00 63 1016.7
20260905020054 87 71 4.0 8.0 0.00 0.00 0.00 63 1016.6
20260905015534 87 97 1.0 8.0 0.00 0.00 0.00 63 1016.7
20260905015036 87 93 3.0 9.0 0.00 0.00 0.00 63 1016.6
20260905014550 87 91 3.0 9.0 0.00 0.00 0.00 62 1016.6
20260905014035 88 96 2.0 9.0 0.00 0.00 0.00 62 1016.7
20260905013535 88 87 3.0 9.0 0.00 0.00 0.00 62 1016.6
20260905013059 88 96 3.0 8.0 0.00 0.00 0.00 62 1016.4
20260905012535 88 103 2.0 8.0 0.00 0.00 0.00 61 1016.4
20260905012035 88 360 1.0 8.0 0.00 0.00 0.00 61 1016.4
20260905011614 89 82 2.0 8.0 0.00 0.00 0.00 60 1016.4
20260905011035 89 65 3.0 8.0 0.00 0.00 0.00 60 1016.2
20260905010537 89 50 4.0 8.0 0.00 0.00 0.00 60 1016.2
20260905010052 89 75 3.0 12.0 0.00 0.00 0.00 59 1016.1
20260905005534 90 0 2.0 12.0 0.00 0.00 0.00 59 1016.1
20260905005035 90 85 3.0 12.0 0.00 0.00 0.00 58 1016.0
20260905004548 90 84 3.0 11.0 0.00 0.00 0.00 58 1015.9
20260905004035 91 112 2.0 12.0 0.00 0.00 0.00 57 1016.0
20260905003537 91 38 2.0 12.0 0.00 0.00 0.00 56 1016.0
20260905003059 91 59 4.0 11.0 0.00 0.00 0.00 55 1015.9
20260905002535 92 74 5.0 13.0 0.00 0.00 0.00 54 1015.9
20260905002038 92 76 6.0 13.0 0.00 0.00 0.00 53 1015.8
20260905001606 92 101 5.0 11.0 0.00 0.00 0.00 50 1015.7
20260905001034 93 88 4.0 11.0 0.00 0.00 0.00 50 1015.5
20260905000534 93 91 4.0 10.0 0.00 0.00 0.00 51 1015.6
20260905000055 94 111 3.0 9.0 0.00 0.00 0.00 51 1015.4
20260904235535 94 78 3.0 9.0 0.00 0.00 0.00 52 1015.4
20260904235035 93 78 1.0 10.0 0.00 0.00 0.00 53 1015.6
20260904234548 93 69 3.0 10.0 0.00 0.00 0.00 53 1015.4
20260904234038 93 79 2.0 9.0 0.00 0.00 0.00 53 1015.4
20260904233535 94 120 3.0 9.0 0.00 0.00 0.00 53 1015.4
20260904233105 94 84 2.0 8.0 0.00 0.00 0.00 52 1015.3
20260904232536 94 0 3.0 8.0 0.00 0.00 0.00 52 1015.5
20260904232034 94 70 1.0 9.0 0.00 0.00 0.00 53 1015.4
20260904231551 94 0 2.0 10.0 0.00 0.00 0.00 53 1015.4
20260904231034 94 0 0.0 10.0 0.00 0.00 0.00 54 1015.4
20260904230539 94 69 3.0 10.0 0.00 0.00 0.00 54 1015.5
20260904230052 94 88 3.0 11.0 0.00 0.00 0.00 54 1015.5
20260904225535 94 69 4.0 11.0 0.00 0.00 0.00 53 1015.6
20260904225039 94 96 4.0 11.0 0.00 0.00 0.00 54 1015.6
20260904224637 94 77 2.0 7.0 0.00 0.00 0.00 56 1015.6
20260904224037 93 0 1.0 7.0 0.00 0.00 0.00 57 1015.5
20260904223536 93 74 1.0 8.0 0.00 0.00 0.00 57 1015.6
20260904223058 93 72 2.0 8.0 0.00 0.00 0.00 57 1015.6
20260904222536 93 76 1.0 6.0 0.00 0.00 0.00 57 1015.8
20260904222038 93 63 1.0 6.0 0.00 0.00 0.00 58 1015.8
20260904221557 92 0 1.0 6.0 0.00 0.00 0.00 57 1015.8
20260904221038 92 74 2.0 10.0 0.00 0.00 0.00 57 1015.9
20260904220537 93 71 1.0 10.0 0.00 0.00 0.00 57 1016.0
20260904220105 93 50 2.0 9.0 0.00 0.00 0.00 55 1016.0
20260904215538 94 46 3.0 9.0 0.00 0.00 0.00 55 1016.1
20260904215036 94 105 3.0 9.0 0.00 0.00 0.00 53 1016.0
20260904214552 94 74 4.0 9.0 0.00 0.00 0.00 51 1016.1
20260904214040 94 87 2.0 7.0 0.00 0.00 0.00 51 1016.2
20260904213539 94 71 2.0 6.0 0.00 0.00 0.00 51 1016.3
20260904213057 94 75 2.0 9.0 0.00 0.00 0.00 51 1016.3
20260904212537 94 79 2.0 9.0 0.00 0.00 0.00 51 1016.4
20260904212036 95 92 2.0 8.0 0.00 0.00 0.00 51 1016.5
20260904211558 95 0 1.0 8.0 0.00 0.00 0.00 52 1016.5
20260904211036 95 92 3.0 8.0 0.00 0.00 0.00 52 1016.5
20260904210538 95 71 0.0 7.0 0.00 0.00 0.00 52 1016.6
20260904210056 95 65 2.0 7.0 0.00 0.00 0.00 52 1016.7
20260904205538 95 349 0.0 11.0 0.00 0.00 0.00 51 1016.6
20260904205036 95 0 3.0 11.0 0.00 0.00 0.00 51 1016.7
20260904204555 96 93 2.0 10.0 0.00 0.00 0.00 51 1016.8
20260904204039 96 69 3.0 9.0 0.00 0.00 0.00 51 1016.8
20260904203538 96 360 2.0 9.0 0.00 0.00 0.00 51 1016.8
20260904203055 97 72 4.0 9.0 0.00 0.00 0.00 50 1017.0
20260904202537 97 109 1.0 8.0 0.00 0.00 0.00 50 1016.9
20260904202037 97 59 2.0 9.0 0.00 0.00 0.00 50 1017.0
20260904201606 97 0 1.0 9.0 0.00 0.00 0.00 50 1017.1
20260904201036 97 63 1.0 9.0 0.00 0.00 0.00 51 1016.9
20260904200536 96 0 2.0 9.0 0.00 0.00 0.00 51 1017.0
20260904200053 96 85 0.0 7.0 0.00 0.00 0.00 52 1017.1
20260904195536 96 83 3.0 7.0 0.00 0.00 0.00 52 1017.2
20260904195041 96 88 1.0 9.0 0.00 0.00 0.00 54 1017.3
20260904194558 95 78 1.0 9.0 0.00 0.00 0.00 53 1017.3
20260904194035 95 106 2.0 8.0 0.00 0.00 0.00 54 1017.3
20260904193535 94 77 2.0 8.0 0.00 0.00 0.00 55 1017.4
20260904193100 94 0 1.0 7.0 0.00 0.00 0.00 56 1017.4
20260904192534 94 0 0.0 7.0 0.00 0.00 0.00 57 1017.4
20260904192037 93 94 2.0 7.0 0.00 0.00 0.00 57 1017.5
20260904191550 93 73 0.0 6.0 0.00 0.00 0.00 57 1017.6
20260904191036 93 165 1.0 6.0 0.00 0.00 0.00 58 1017.7
20260904190534 93 86 1.0 6.0 0.00 0.00 0.00 58 1017.7
20260904190057 93 0 0.0 7.0 0.00 0.00 0.00 58 1017.7
20260904185535 93 116 3.0 8.0 0.00 0.00 0.00 58 1017.8
20260904185036 93 123 2.0 8.0 0.00 0.00 0.00 58 1017.8
20260904184552 93 0 2.0 8.0 0.00 0.00 0.00 58 1017.7
20260904184036 93 0 0.0 6.0 0.00 0.00 0.00 58 1017.8
20260904183535 92 0 1.0 7.0 0.00 0.00 0.00 58 1017.8
20260904183059 92 120 3.0 8.0 0.00 0.00 0.00 58 1018.0
20260904182534 93 117 1.0 8.0 0.00 0.00 0.00 58 1018.0
20260904182033 93 89 1.0 7.0 0.00 0.00 0.00 59 1018.1
20260904181547 93 101 2.0 7.0 0.00 0.00 0.00 58 1018.0
20260904181034 93 96 2.0 8.0 0.00 0.00 0.00 59 1018.1
20260904180534 93 102 3.0 10.0 0.00 0.00 0.00 59 1018.2
20260904180103 94 153 5.0 10.0 0.00 0.00 0.00 58 1018.3
20260904175534 94 67 3.0 10.0 0.00 0.00 0.00 57 1018.2
20260904175034 94 0 0.0 8.0 0.00 0.00 0.00 57 1018.2
20260904174550 95 163 4.0 10.0 0.00 0.00 0.00 58 1018.2
20260904174034 95 111 0.0 11.0 0.00 0.00 0.00 57 1018.2
20260904173535 96 0 4.0 11.0 0.00 0.00 0.00 55 1018.3
20260904173111 96 62 1.0 10.0 0.00 0.00 0.00 58 1018.5
20260904172539 95 0 2.0 10.0 0.00 0.00 0.00 58 1018.5
20260904172035 95 143 3.0 9.0 0.00 0.00 0.00 59 1018.7
20260904171557 94 186 0.0 8.0 0.00 0.00 0.00 62 1018.6
20260904171034 93 211 3.0 8.0 0.00 0.00 0.00 62 1018.8
20260904170534 92 146 3.0 8.0 0.00 0.00 0.00 65 1019.0
20260904170109 91 42 1.0 9.0 0.00 0.00 0.00 69 1019.0
20260904165534 90 116 3.0 9.0 0.00 0.00 0.00 68 1019.0
20260904165034 90 59 2.0 7.0 0.00 0.00 0.00 68 1019.1
20260904164554 90 0 2.0 7.0 0.00 0.00 0.00 69 1019.1
20260904164035 89 175 2.0 7.0 0.00 0.00 0.00 69 1019.2
20260904163536 89 197 1.0 7.0 0.00 0.00 0.00 70 1019.1
20260904163059 89 92 2.0 9.0 0.00 0.00 0.00 71 1019.1
20260904162535 89 181 2.0 9.0 0.00 0.00 0.00 70 1019.1
20260904162035 89 138 2.0 9.0 0.00 0.00 0.00 70 1019.0
20260904161554 89 167 1.0 7.0 0.00 0.00 0.00 70 1018.9